Weather History for Sarasota, FL

Change the Weather History Date:

Monday, June 17, 2013

  Actual Average Record
Temperature  
Mean Temperature 84 °F 81 °F  
Max Temperature 91 °F 89 °F 98 °F (1938)
Min Temperature 77 °F 73 °F 63 °F (1913)
Degree Days  
Heating Degree Days 0 0  
Month to date heating degree days 0 0  
Since 1 June heating degree days 0 0  
Since 1 July heating degree days 397 477  
Cooling Degree Days 19 16  
Month to date cooling degree days 283 258  
Year to date cooling degree days 1151 1009  
Since 1 June cooling degree days 283 258  
Growing Degree Days 34 (Base 50)    
Moisture  
Dew Point 74 °F    
Average Humidity 72    
Maximum Humidity 91    
Minimum Humidity 55    
Precipitation  
Precipitation 0.00 in 0.31 in 2.40 in (1967)
Month to date precipitation 6.39 3.45  
Year to date precipitation 14.53 17.15  
Sea Level Pressure  
Sea Level Pressure 30.03 in    
Wind  
Wind Speed 6 mph (WSW)    
Max Wind Speed 13 mph    
Max Gust Speed 17 mph    
Visibility 10 miles    
Events      
T = Trace of Precipitation, MM = Missing Value Source: NWS Daily Summary

Daily Weather History Graph

Daily Weather History Graph

Search for Another Location

Airport:

Trip Planner

Search our weather history database for the weather conditions in past years. The results will help you decide how hot, cold, wet, or windy it might be!

Date:

Astronomy

Jun. 17, 2013 Rise Set
Actual Time 6:35 AM EDT 8:27 PM EDT
Civil Twilight 6:08 AM EDT 8:53 PM EDT
Nautical Twilight 5:36 AM EDT 9:25 PM EDT
Astronomical Twilight 5:02 AM EDT 9:59 PM EDT
Moon 2:30 PM EDT (6/17) 1:41 AM EDT (6/17)
Length of Visible Light 14h 45m
Length of Day
13h 52m
First Quarter, 60% of the Moon is Illuminated
Jun 17
First Quarter
Jun 23
Full
Jun 30
Last Quarter
Jul 8
New
Jul 15
First Quarter

Hourly Weather History & Observations

Time (EDT) Temp. Heat Index Dew Point Humidity Pressure Visibility Wind Dir Wind Speed Gust Speed Precip Events Conditions
12:53 AM 80.1 °F 85.1 °F 75.0 °F 85% 30.06 in 10.0 mi Calm Calm - N/A   Clear
1:53 AM 79.0 °F - 75.9 °F 90% 30.05 in 10.0 mi Calm Calm - N/A   Partly Cloudy
2:53 AM 79.0 °F - 75.9 °F 90% 30.02 in 10.0 mi ESE 4.6 mph - N/A   Scattered Clouds
3:53 AM 78.1 °F - 75.0 °F 90% 30.01 in 10.0 mi SE 3.5 mph - N/A   Clear
4:15 AM 77.0 °F - 73.4 °F 89% 30.02 in 10.0 mi SE 4.6 mph - N/A   Partly Cloudy
4:53 AM 77.0 °F - 73.9 °F 90% 30.02 in 10.0 mi Calm Calm - N/A   Scattered Clouds
5:53 AM 78.1 °F - 75.0 °F 90% 30.03 in 10.0 mi SE 4.6 mph - N/A   Scattered Clouds
6:53 AM 77.0 °F - 73.9 °F 90% 30.04 in 10.0 mi Calm Calm - N/A   Clear
7:53 AM 81.0 °F 86.7 °F 75.0 °F 82% 30.04 in 10.0 mi Calm Calm - N/A   Clear
8:53 AM 84.9 °F 93.3 °F 75.0 °F 72% 30.06 in 10.0 mi Calm Calm - N/A   Clear
9:53 AM 87.1 °F 94.5 °F 73.0 °F 63% 30.05 in 10.0 mi Calm Calm - N/A   Clear
10:53 AM 88.0 °F 92.1 °F 69.1 °F 53% 30.06 in 10.0 mi West 6.9 mph - N/A   Clear
11:53 AM 89.1 °F 96.0 °F 72.0 °F 57% 30.05 in 10.0 mi WSW 6.9 mph - N/A   Partly Cloudy
12:53 PM 89.1 °F 97.0 °F 73.0 °F 59% 30.05 in 10.0 mi WSW 9.2 mph - N/A   Clear
1:53 PM 90.0 °F 97.9 °F 73.0 °F 57% 30.05 in 10.0 mi WSW 10.4 mph - N/A   Clear
2:53 PM 90.0 °F 99.0 °F 73.9 °F 59% 30.02 in 10.0 mi West 9.2 mph - N/A   Clear
3:53 PM 90.0 °F 99.0 °F 73.9 °F 59% 30.02 in 10.0 mi SW 11.5 mph - N/A   Clear
4:53 PM 90.0 °F 99.0 °F 73.9 °F 59% 30.00 in 10.0 mi West 9.2 mph - N/A   Clear
5:53 PM 89.1 °F 98.0 °F 73.9 °F 61% 29.99 in 10.0 mi WSW 10.4 mph - N/A   Clear
6:53 PM 87.1 °F 94.5 °F 73.0 °F 63% 29.99 in 10.0 mi WSW 8.1 mph - N/A   Clear
7:53 PM 86.0 °F 93.0 °F 73.0 °F 65% 30.01 in 10.0 mi West 9.2 mph - N/A   Clear
8:53 PM 84.0 °F 90.2 °F 73.0 °F 69% 30.02 in 10.0 mi WNW 6.9 mph - N/A   Clear
9:53 PM 84.0 °F 90.2 °F 73.0 °F 69% 30.03 in 10.0 mi WNW 9.2 mph - N/A   Clear
10:53 PM 82.0 °F 87.9 °F 73.9 °F 76% 30.06 in 10.0 mi NW 6.9 mph - N/A   Mostly Cloudy
11:53 PM 82.9 °F 89.4 °F 73.9 °F 74% 30.05 in 10.0 mi West 5.8 mph - N/A   Clear